Chazy, NY (12921)

12:17 AM EDT on July 29, 2016 (GMT -0400)
Chazy, NY | | Change Station

Elev 167 ft 44.88 °N, 73.43 °W | Updated 11 seconds ago

Overcast
Overcast
68.6 °F
Feels Like 68.6 °F
N
0.0
Wind Variable Wind from West
Gusts 2.0 mph

Today
High -- | Low -- °F
--% Chance of Precip.
Yesterday
High -- | Low -- °F
Precip. -- in
Pressure 29.90 in
Visibility 10.0 miles
Clouds Overcast 10000 ft
Dew Point 64 °F
Humidity 87%
Rainfall 0.00 in
Snow Depth Not available.
5:36 AM 8:23 PM
Waning Crescent, 26% visible
METAR KPBG 290353Z AUTO 00000KT 10SM OVC100 20/19 A2990 RMK AO2 SLP125 T02000194
Pressure 29.90 in
Visibility 10.0 miles
Clouds Overcast 10000 ft
Dew Point 64 °F
Humidity 87%
Rainfall 0.00 in
Snow Depth Not available.
5:36 AM 8:23 PM
Waning Crescent, 26% visible
METAR KPBG 290353Z AUTO 00000KT 10SM OVC100 20/19 A2990 RMK AO2 SLP125 T02000194

10-Day Weather Forecast

Almanac

Astronomy

Jul. 29, 2016 Rise Set
Actual Time
Civil Twilight
Nautical Twilight
Astronomical Twilight
Moon
Length of Visible Light
Length of Day
Tomorrow will be .
, % of the Moon is Illuminated

Today's Extremes

State Highs State Lows

Community

WunderPhotos

Upload Photos

1,928,293 photos uploaded!

WunderBlog® & News

Nearby

Air Quality

  Air Quality AQ Index Pollutant
Not available.

Snow Depth

Station Depth Elevation

Earthquake Activity

City Distance Mag. Time & Date
Minimum magnitude displayed is 2.5.

Coastal Water Temperatures

Place Temperature

Stations

Nearby Weather Stations

Station Location Temp. Windchill Dew Point Humidity Wind Precip. Elev Updated Type
                   

Watches & Warnings

There are currently no watches in effect.